{"data":{"norad_id":62582,"intl_designator":"2025-007H","name":"CENTISPACE-1 S13","alt_names":[],"object_type":"PAYLOAD","status":"ACTIVE","operator":null,"country":"PRC","launch_date":"2025-01-13","launch_site_code":"YSLA","launch_vehicle":null,"mission":null,"orbit_class":"UNKNOWN","rcs_meters":null,"size_class":null,"mass_kg":null,"dimensions":null,"purposes":[],"wikipedia_slug":null,"has_3d_model":false,"image_url":null,"decayed_at":null,"tle_current":{"epoch":"2026-09-22T18:07:12.993600Z","epoch_age_seconds":122758,"freshness":"FRESH","line1":"1 62582U 25007H   26265.75501150 -.00000068  00000+0  68936-4 0  9992","line2":"2 62582  54.9815 310.2859 0009105 278.1750  81.8174 13.80626679 88205","mean_motion":13.80626679,"eccentricity":0.0009105,"inclination_deg":54.9815,"raan_deg":310.2859,"arg_perigee_deg":278.175,"mean_anomaly_deg":81.8174,"bstar":6.8936e-5,"rev_number":8820,"period_min":104.30046166014,"perigee_km":954.98192939206,"apogee_km":968.34770850436,"semimajor_km":7339.8018189482,"source":"CELESTRAK","updated_at":"2026-09-23T09:00:21.490620Z"}}}